FW8560 Weather Reports


time (UTC)temp
F
wind
direction
speed
knots
gust
knots
rain 1hr
in
rain 24hr
in
rain mn
in
humidity
%
barometer
mb
20260507180332 69 262 8.7 16.5 0.00 0.00 0.00 31 1009.1
20260507175828 69 282 10.4 18.2 0.00 0.00 0.00 31 1009.1
20260507175325 67 303 9.6 18.2 0.00 0.00 0.00 33 1009.3
20260507174822 68 285 6.1 14.8 0.00 0.00 0.00 31 1009.2
20260507174320 67 288 9.6 13.9 0.00 0.00 0.00 32 1009.6
20260507173817 67 288 4.3 11.3 0.00 0.00 0.00 31 1009.3
20260507173314 66 291 6.1 14.8 0.00 0.00 0.00 32 1009.4
20260507172811 67 319 7.0 13.0 0.00 0.00 0.00 32 1009.4
20260507172308 67 294 7.0 13.9 0.00 0.00 0.00 32 1009.4
20260507171803 67 289 12.2 18.2 0.00 0.00 0.00 31 1009.2
20260507171301 66 312 13.9 16.5 0.00 0.00 0.00 32 1009.5
20260507170757 66 338 6.1 15.6 0.00 0.00 0.00 32 1009.5
20260507170254 66 298 14.8 17.4 0.00 0.00 0.00 32 1009.4
20260507165750 66 273 9.6 10.4 0.00 0.00 0.00 33 1009.4
20260507165246 66 274 11.3 13.0 0.00 0.00 0.00 33 1009.4
20260507164742 65 293 13.0 18.2 0.00 0.00 0.00 34 1009.4
20260507164239 64 277 9.6 15.6 0.00 0.00 0.00 34 1009.7
20260507163736 64 269 9.6 16.5 0.00 0.00 0.00 34 1009.4
20260507163234 65 281 10.4 14.8 0.00 0.00 0.00 34 1009.9
20260507162730 65 289 10.4 11.3 0.00 0.00 0.00 33 1009.6
20260507162226 66 285 7.8 19.1 0.00 0.00 0.00 32 1009.6
20260507161723 66 305 11.3 17.4 0.00 0.00 0.00 31 1009.3
20260507161219 66 290 7.8 14.8 0.00 0.00 0.00 32 1009.7
20260507160715 66 303 9.6 18.2 0.00 0.00 0.00 32 1009.7
20260507160212 66 285 10.4 17.4 0.00 0.00 0.00 32 1009.9
20260507155708 65 303 7.8 13.9 0.00 0.00 0.00 33 1009.7
20260507155204 65 288 7.0 14.8 0.00 0.00 0.00 33 1009.7
20260507154701 65 290 13.0 15.6 0.00 0.00 0.00 33 1009.9
20260507154159 64 295 13.0 14.8 0.00 0.00 0.00 34 1009.9
20260507153655 64 273 11.3 14.8 0.00 0.00 0.00 34 1009.9
20260507153151 64 284 8.7 19.1 0.00 0.00 0.00 34 1010.1
20260507152648 64 281 11.3 19.1 0.00 0.00 0.00 34 1010.2
20260507152144 64 276 17.4 19.1 0.00 0.00 0.00 34 1010.2
20260507151640 62 273 14.8 14.8 0.00 0.00 0.00 37 1010.1
20260507151137 61 283 9.6 15.6 0.00 0.00 0.00 38 1010.2
20260507150634 62 296 8.7 13.0 0.00 0.00 0.00 38 1010.3
20260507150131 62 286 7.8 14.8 0.00 0.00 0.00 38 1010.8
20260507145626 60 286 9.6 13.0 0.00 0.00 0.00 40 1010.7
20260507145124 59 297 11.3 13.9 0.00 0.00 0.00 40 1010.5
20260507144620 57 285 7.0 13.0 0.00 0.00 0.00 43 1010.8
20260507144119 56 294 7.0 14.8 0.00 0.00 0.00 44 1010.9
20260507143615 57 291 7.0 11.3 0.00 0.00 0.00 43 1010.7
20260507143112 57 276 5.2 12.2 0.00 0.00 0.00 42 1010.7
20260507142607 56 274 7.0 14.8 0.00 0.00 0.00 42 1010.8
20260507142105 57 286 5.2 13.9 0.00 0.00 0.00 42 1011.0
20260507141601 56 272 8.7 13.0 0.00 0.00 0.00 43 1010.9
20260507141057 55 255 5.2 7.8 0.00 0.00 0.00 45 1010.9
20260507140554 54 276 10.4 14.8 0.00 0.00 0.00 45 1010.9
20260507140051 54 286 4.3 13.9 0.00 0.00 0.00 45 1011.1
20260507135548 54 276 6.1 12.2 0.00 0.00 0.00 46 1010.9
20260507135046 54 285 8.7 13.0 0.00 0.00 0.00 46 1010.9
20260507134542 53 296 9.6 13.9 0.00 0.00 0.00 48 1011.0
20260507134038 52 301 7.0 10.4 0.00 0.00 0.00 49 1011.1
20260507133534 51 294 5.2 13.0 0.00 0.00 0.00 51 1011.2
20260507133032 51 307 6.1 12.2 0.00 0.00 0.00 51 1010.8
20260507132528 50 291 3.5 12.2 0.00 0.00 0.00 54 1011.0
20260507132025 49 315 3.5 6.1 0.00 0.00 0.00 54 1011.1
20260507131522 48 309 5.2 9.6 0.00 0.00 0.00 57 1011.3
20260507131019 47 316 1.7 3.5 0.00 0.00 0.00 62 1011.3
20260507130516 46 332 1.7 2.6 0.00 0.00 0.00 62 1011.2
20260507130014 47 355 1.7 3.5 0.00 0.00 0.00 61 1011.4
20260507125512 47 296 2.6 3.5 0.00 0.00 0.00 60 1011.3
20260507125011 47 301 3.5 6.1 0.00 0.00 0.00 60 1011.3
20260507124506 46 282 5.2 7.0 0.00 0.00 0.00 59 1011.2
20260507124004 46 297 3.5 7.0 0.00 0.00 0.00 59 1011.3
20260507123501 47 303 5.2 7.8 0.00 0.00 0.00 58 1011.4
20260507122957 46 287 5.2 7.8 0.00 0.00 0.00 60 1011.4
20260507122453 45 295 6.1 7.8 0.00 0.00 0.00 61 1011.7
20260507121949 45 299 9.6 9.6 0.00 0.00 0.00 61 1011.6
20260507121445 0 299 3.5 7.0 0.00 0.00 0.00 1011.7
20260507120941 0 291 6.1 9.6 0.00 0.00 0.00 1011.7
20260507120438 0 285 7.0 8.7 0.00 0.00 0.00 1011.4
20260507115934 0 288 6.1 9.6 0.00 0.00 0.00 1011.7
20260507115430 0 277 5.2 8.7 0.00 0.00 0.00 1012.0
20260507114927 0 286 7.8 7.8 0.00 0.00 0.00 1012.0
20260507114423 0 304 4.3 9.6 0.00 0.00 0.00 1012.2
20260507113920 0 317 3.5 6.1 0.00 0.00 0.00 1012.2
20260507113417 0 279 7.0 8.7 0.00 0.00 0.00 1012.1
20260507112914 0 288 2.6 5.2 0.00 0.00 0.00 1012.2
20260507112412 0 286 2.6 4.3 0.00 0.00 0.00 1012.5
20260507111909 0 317 2.6 4.3 0.00 0.00 0.00 1012.5
20260507111406 0 337 2.6 3.5 0.00 0.00 0.00 1012.5
20260507110902 0 272 3.5 4.3 0.00 0.00 0.00 1012.5
20260507110358 0 256 1.7 1.7 0.00 0.00 0.00 1012.6
20260507105855 0 50 3.5 3.5 0.00 0.00 0.00 1012.6
20260507105352 0 196 1.7 2.6 0.00 0.00 0.00 1012.4
20260507104849 0 307 5.2 5.2 0.00 0.00 0.00 1012.5
20260507104345 0 36 3.5 3.5 0.00 0.00 0.00 1012.6
20260507103841 0 337 1.7 2.6 0.00 0.00 0.00 1012.8
20260507103338 0 252 2.6 4.3 0.00 0.00 0.00 1012.8
20260507102835 0 267 2.6 6.1 0.00 0.00 0.00 1012.8
20260507102331 0 271 3.5 4.3 0.00 0.00 0.00 1012.6
20260507101827 0 248 3.5 5.2 0.00 0.00 0.00 1012.7
20260507101322 0 248 5.2 5.2 0.00 0.00 0.00 1012.8
20260507100819 0 273 3.5 4.3 0.00 0.00 0.00 1012.9
20260507100317 0 256 2.6 6.1 0.00 0.00 0.00 1013.1
20260507095815 0 271 4.3 4.3 0.00 0.00 0.00 1012.8
20260507095311 0 280 3.5 4.3 0.00 0.00 0.00 1013.3
20260507094808 0 311 3.5 4.3 0.00 0.00 0.00 1013.0
20260507094305 0 272 0.9 4.3 0.00 0.00 0.00 1013.1
20260507093802 0 262 0.9 5.2 0.00 0.00 0.00 1013.1
20260507093301 0 294 2.6 5.2 0.00 0.00 0.00 1012.8
20260507092758 0 281 2.6 4.3 0.00 0.00 0.00 1013.0
20260507092254 0 329 3.5 4.3 0.00 0.00 0.00 1012.9
20260507091751 0 318 4.3 4.3 0.00 0.00 0.00 1013.1
20260507091248 0 279 2.6 4.3 0.00 0.00 0.00 1013.0
20260507090747 0 273 3.5 7.8 0.00 0.00 0.00 1013.1
20260507090244 0 303 1.7 5.2 0.00 0.00 0.00 1013.0
20260507085742 0 299 3.5 3.5 0.00 0.00 0.00 1013.5
20260507085238 0 267 3.5 4.3 0.00 0.00 0.00 1013.4
20260507084736 0 274 1.7 2.6 0.00 0.00 0.00 1013.3
20260507084232 0 319 1.7 3.5 0.00 0.00 0.00 1013.4
20260507083730 0 298 0.0 3.5 0.00 0.00 0.00 1013.4
20260507083226 0 41 1.7 2.6 0.00 0.00 0.00 1013.4
20260507082722 0 59 0.0 1.7 0.00 0.00 0.00 1013.3
20260507082218 0 7 1.7 3.5 0.00 0.00 0.00 1013.4
20260507081715 0 3 0.0 4.3 0.00 0.00 0.00 1013.4
20260507081211 0 20 2.6 2.6 0.00 0.00 0.00 1013.6
20260507080708 0 15 1.7 2.6 0.00 0.00 0.00 1013.6
20260507080204 0 24 1.7 2.6 0.00 0.00 0.00 1013.6
20260507075659 0 12 2.6 2.6 0.00 0.00 0.00 1013.8
20260507075156 0 301 2.6 3.5 0.00 0.00 0.00 1013.8
20260507074652 0 326 2.6 7.8 0.00 0.00 0.00 1013.8
20260507074151 0 276 4.3 5.2 0.00 0.00 0.00 1013.7
20260507073647 0 255 4.3 9.6 0.00 0.00 0.00 1013.9
20260507073143 0 218 7.0 10.4 0.00 0.00 0.00 1013.9
20260507072641 0 236 3.5 13.0 0.00 0.00 0.00 1013.9
20260507072138 0 226 11.3 16.5 0.00 0.00 0.00 1013.9
20260507071636 0 221 12.2 15.6 0.00 0.00 0.00 1013.9
20260507071132 0 220 7.8 19.1 0.00 0.00 0.00 1013.7
20260507070629 0 219 13.9 20.0 0.00 0.00 0.00 1013.5
20260507070126 0 233 8.7 16.5 0.00 0.00 0.00 1013.9
20260507065622 0 228 11.3 16.5 0.00 0.00 0.00 1014.2
20260507065119 0 239 9.6 15.6 0.00 0.00 0.00 1014.2
20260507064617 0 227 8.7 18.2 0.00 0.00 0.00 1014.2
20260507064116 0 222 13.9 19.1 0.00 0.00 0.00 1014.0
20260507063613 0 219 7.8 16.5 0.00 0.00 0.00 1014.3
20260507063110 0 225 14.8 20.9 0.00 0.00 0.00 1014.4
20260507062606 0 232 9.6 20.0 0.00 0.00 0.00 1014.4
20260507062104 0 231 13.9 20.0 0.00 0.00 0.00 1014.4
20260507061601 0 229 11.3 21.7 0.00 0.00 0.00 1014.3
20260507061059 0 229 11.3 17.4 0.00 0.00 0.00 1014.3
20260507060557 0 215 16.5 18.2 0.00 0.00 0.00 1014.4
20260507060053 0 227 13.0 20.9 0.00 0.00 0.00 1014.4
20260507055548 0 222 14.8 20.0 0.00 0.04 0.04 1014.5
20260507055045 0 225 13.9 20.0 0.00 0.04 0.04 1014.4
20260507054541 0 216 10.4 19.1 0.00 0.04 0.04 1014.2
20260507054038 0 227 14.8 19.1 0.00 0.04 0.04 1013.7
20260507053536 0 224 9.6 18.2 0.00 0.04 0.04 1014.4
20260507053035 0 217 15.6 17.4 0.00 0.04 0.04 1014.4
20260507052532 0 215 7.8 20.0 0.00 0.04 0.04 1014.3
20260507052028 0 218 10.4 18.2 0.00 0.04 0.04 1014.4
20260507051526 0 218 9.6 17.4 0.00 0.04 0.04 1014.6
20260507051023 0 215 8.7 13.9 0.00 0.04 0.04 1014.5
20260507050519 0 227 10.4 14.8 0.00 0.04 0.04 1014.4
20260507050016 0 223 7.8 13.9 0.00 0.04 0.04 1014.6
20260507045512 0 209 9.6 12.2 0.00 0.04 0.04 1014.7
20260507045010 0 203 7.0 12.2 0.00 0.04 0.04 1014.7
20260507044506 0 204 10.4 16.5 0.00 0.04 0.04 1014.8
20260507044003 0 204 9.6 15.6 0.00 0.04 0.04 1014.7
20260507043459 0 220 8.7 14.8 0.00 0.04 0.04 1015.1
20260507042955 0 205 9.6 12.2 0.00 0.04 0.04 1015.0
20260507042452 0 204 8.7 13.9 0.00 0.04 0.04 1014.8
20260507041948 0 206 7.8 11.3 0.00 0.04 0.04 1015.1
20260507041445 0 210 6.1 12.2 0.00 0.04 0.04 1015.1
20260507040942 0 205 7.0 10.4 0.00 0.04 0.04 1015.1
20260507040438 0 194 9.6 10.4 0.00 0.04 0.04 1015.4
20260507035934 0 210 5.2 11.3 0.00 0.04 0.04 1015.4
20260507035431 0 195 5.2 10.4 0.00 0.04 0.04 1015.4
20260507034927 0 208 9.6 11.3 0.00 0.04 0.04 1015.4
20260507034424 0 214 5.2 12.2 0.00 0.04 0.04 1015.5
20260507033922 0 213 6.1 7.8 0.00 0.04 0.04 1015.5
20260507033420 0 198 5.2 9.6 0.00 0.04 0.04 1015.6
20260507032917 0 194 6.1 10.4 0.00 0.04 0.04 1015.7
20260507032414 0 204 3.5 11.3 0.00 0.04 0.04 1015.5
20260507031909 0 224 2.6 6.1 0.00 0.04 0.04 1015.6
20260507031406 0 212 5.2 5.2 0.00 0.04 0.04 1015.5
20260507030903 0 210 1.7 4.3 0.00 0.04 0.04 1015.5
20260507030400 0 177 1.7 4.3 0.00 0.04 0.04 1015.5
20260507025857 0 212 3.5 4.3 0.00 0.04 0.04 1015.5
20260507025355 0 187 2.6 5.2 0.00 0.04 0.04 1015.5
20260507024852 0 208 2.6 4.3 0.00 0.04 0.04 1015.3
20260507024349 0 198 3.5 5.2 0.00 0.04 0.04 1015.3
20260507023845 0 205 4.3 7.8 0.00 0.04 0.04 1015.0
20260507023342 0 204 4.3 6.1 0.00 0.04 0.04 1015.1
20260507022839 0 204 3.5 6.1 0.00 0.04 0.04 1014.8
20260507022336 0 222 2.6 6.1 0.00 0.04 0.04 1015.0
20260507021831 0 217 3.5 7.8 0.00 0.04 0.04 1015.0
20260507021327 0 215 3.5 7.0 0.00 0.04 0.04 1014.8
20260507020826 0 201 4.3 8.7 0.00 0.04 0.04 1014.7
20260507020322 0 212 5.2 8.7 0.00 0.04 0.04 1014.6
20260507015819 0 206 3.5 7.0 0.00 0.04 0.04 1014.5
20260507015317 0 223 7.0 7.8 0.00 0.04 0.04 1014.5
20260507014814 0 235 6.1 7.8 0.00 0.04 0.04 1014.7
20260507014310 0 235 7.0 7.8 0.00 0.04 0.04 1014.7
20260507013806 0 218 10.4 12.2 0.00 0.04 0.04 1014.6
20260507013304 0 242 5.2 8.7 0.00 0.04 0.04 1014.7
20260507012801 0 236 7.0 9.6 0.00 0.04 0.04 1014.4
20260507012256 0 220 5.2 9.6 0.00 0.04 0.04 1014.4
20260507011754 0 207 3.5 9.6 0.00 0.04 0.04 1014.7
20260507011251 0 221 7.0 11.3 0.00 0.04 0.04 1014.3
20260507010750 0 229 7.8 12.2 0.00 0.04 0.04 1014.0
20260507010246 0 235 9.6 13.0 0.00 0.04 0.04 1014.2
20260507005744 0 256 5.2 8.7 0.00 0.04 0.04 1014.3
20260507005240 0 236 4.3 9.6 0.00 0.04 0.04 1013.9
20260507004737 0 252 6.1 8.7 0.00 0.04 0.04 1014.0
20260507004235 0 244 7.8 12.2 0.00 0.04 0.04 1014.0
20260507003730 0 244 8.7 16.5 0.00 0.04 0.04 1014.2
20260507003226 0 257 6.1 14.8 0.00 0.04 0.04 1013.8
20260507002722 0 221 7.0 15.6 0.00 0.04 0.04 1013.9
20260507002218 0 223 4.3 12.2 0.00 0.04 0.04 1014.2
20260507001715 0 243 6.1 11.3 0.00 0.04 0.04 1014.2
20260507001213 0 244 8.7 13.0 0.00 0.04 0.04 1013.9
20260507000709 0 238 9.6 15.6 0.00 0.04 0.04 1013.9
20260507000205 0 191 6.1 13.0 0.00 0.04 0.04 1014.2
20260506235702 0 230 9.6 13.9 0.00 0.04 0.04 1014.3
20260506235157 0 258 7.8 8.7 0.00 0.04 0.04 1014.0
20260506234654 0 233 7.8 12.2 0.00 0.04 0.04 1014.2
20260506234151 0 232 7.0 12.2 0.00 0.04 0.04 1014.2
20260506233648 0 256 7.8 14.8 0.00 0.04 0.04 1014.2
20260506233145 0 201 3.5 7.8 0.00 0.04 0.04 1014.2
20260506232641 0 238 6.1 7.8 0.00 0.04 0.04 1014.2
20260506232137 0 233 7.8 13.0 0.00 0.04 0.04 1014.2
20260506231634 0 247 5.2 12.2 0.00 0.04 0.04 1014.2
20260506231133 0 251 9.6 12.2 0.00 0.04 0.04 1014.2
20260506230629 0 284 3.5 5.2 0.00 0.04 0.04 1014.3
20260506230126 0 225 2.6 7.8 0.00 0.04 0.04 1014.2
20260506225623 0 243 3.5 7.0 0.00 0.04 0.04 1014.2
20260506225119 51 255 5.2 11.3 0.00 0.04 0.04 38 1013.8
20260506224616 54 245 7.0 11.3 0.00 0.04 0.04 36 1014.2
20260506224112 51 258 4.3 9.6 0.00 0.04 0.04 39 1014.0
20260506223608 51 227 4.3 10.4 0.00 0.04 0.04 38 1013.9
20260506223105 54 254 8.7 12.2 0.00 0.04 0.04 35 1014.3
20260506222602 53 294 11.3 13.0 0.00 0.04 0.04 37 1014.4
20260506222058 50 245 7.8 16.5 0.00 0.04 0.04 39 1014.3
20260506221556 53 259 7.8 16.5 0.00 0.04 0.04 36 1014.0
20260506221054 51 268 4.3 14.8 0.00 0.04 0.04 37 1014.2
20260506220549 51 262 7.8 8.7 0.00 0.04 0.04 38 1014.3
20260506220045 51 266 5.2 7.8 0.00 0.04 0.04 37 1014.3
20260506215542 52 236 7.0 12.2 0.00 0.04 0.04 37 1014.5
20260506215038 51 209 6.1 10.4 0.00 0.04 0.04 39 1014.5
20260506214535 51 269 7.0 15.6 0.00 0.04 0.04 37 1014.6
20260506214032 51 1 2.6 6.1 0.00 0.04 0.04 37 1014.6
20260506213530 53 302 7.0 11.3 0.00 0.04 0.04 35 1014.6
20260506213027 50 264 7.0 12.2 0.00 0.04 0.04 37 1014.8
20260506212524 52 235 6.1 10.4 0.00 0.04 0.04 37 1014.8
20260506212019 51 238 4.3 9.6 0.00 0.04 0.04 37 1015.0
20260506211515 51 237 7.8 13.9 0.00 0.04 0.04 37 1015.0
20260506211013 50 247 4.3 7.8 0.00 0.04 0.04 39 1015.3
20260506210509 51 277 7.8 8.7 0.00 0.04 0.04 37 1015.3
20260506210006 51 186 4.3 11.3 0.00 0.04 0.04 38 1015.4
20260506205502 50 229 7.0 12.2 0.00 0.04 0.04 38 1015.6
20260506204958 49 222 7.0 7.0 0.00 0.04 0.04 39 1015.5
20260506204456 51 245 7.0 13.0 0.00 0.04 0.04 37 1015.7
20260506203953 51 202 7.8 9.6 0.00 0.04 0.04 38 1015.9
20260506203450 50 328 2.6 5.2 0.00 0.04 0.04 40 1016.0
20260506202947 50 272 5.2 9.6 0.00 0.04 0.04 39 1016.0
20260506202444 49 251 3.5 7.8 0.00 0.04 0.04 39 1016.2
20260506201940 51 230 7.8 8.7 0.00 0.04 0.04 37 1016.1
20260506201438 50 24 0.9 7.0 0.00 0.04 0.04 41 1016.3
20260506200934 50 246 4.3 7.8 0.00 0.04 0.04 38 1016.3
20260506200431 50 248 4.3 6.1 0.00 0.04 0.04 39 1016.4
20260506195927 50 318 4.3 7.8 0.00 0.04 0.04 40 1016.6
20260506195424 49 289 6.1 7.8 0.00 0.04 0.04 41 1016.6
20260506194921 48 247 4.3 9.6 0.00 0.04 0.04 40 1016.6
20260506194418 48 331 3.5 7.8 0.00 0.04 0.04 41 1016.6
20260506193915 47 348 1.7 4.3 0.00 0.04 0.04 40 1016.8
20260506193412 47 287 5.2 10.4 0.00 0.04 0.04 41 1016.6
20260506192908 47 303 6.1 9.6 0.00 0.04 0.04 42 1016.6
20260506192406 48 8 2.6 3.5 0.00 0.04 0.04 39 1017.0
20260506191902 46 33 2.6 3.5 0.00 0.04 0.04 41 1016.8
20260506191359 47 273 2.6 6.1 0.00 0.04 0.04 41 1016.8
20260506190856 48 256 7.0 7.8 0.00 0.04 0.04 41 1016.8
20260506190352 47 262 2.6 3.5 0.00 0.04 0.04 42 1016.5
20260506185849 47 202 2.6 5.2 0.00 0.04 0.04 40 1016.6
20260506185346 48 345 2.6 4.3 0.00 0.04 0.04 40 1016.6
20260506184843 48 0 2.6 5.2 0.00 0.04 0.04 42 1016.8
20260506184340 49 244 3.5 7.8 0.00 0.04 0.04 41 1016.3
20260506183837 49 193 2.6 9.6 0.00 0.04 0.04 43 1016.6
20260506183333 49 175 0.0 8.7 0.00 0.04 0.04 42 1016.5
20260506182830 50 31 5.2 5.2 0.00 0.04 0.04 40 1016.6
20260506182327 49 320 7.0 10.4 0.00 0.04 0.04 42 1016.8
20260506181825 46 50 6.1 7.8 0.00 0.04 0.04 42 1016.8
20260506181323 46 72 3.5 6.1 0.00 0.04 0.04 40 1017.0
20260506180819 47 64 1.7 7.0 0.00 0.04 0.04 40 1016.9